Regional Weather Roundup
Issued by NWS

Home | Current Version | Previous Version | Text Only | Print | Product List | Glossary Off
Versions: 1 2 3 4 5 6 7 8 9 10 11 12 13 14 15 16 17 18 19 20 21 22 23 24 25 26 27 28 29 30 31 32 33 34 35 36 37 38 39 40 41 42 43 44 45 46 47 48 49 50

000
ASUS43 KLOT 241104
RWRIL

ILLINOIS REGIONAL WEATHER ROUNDUP
NATIONAL WEATHER SERVICE CHICAGO/ROMEOVILLE IL
600 AM CDT WED AUG 24 2016

NOTE: "FAIR" INDICATES FEW OR NO CLOUDS BELOW 12,000 FEET WITH NO
SIGNIFICANT WEATHER AND/OR OBSTRUCTIONS TO VISIBILITY.

* THESE STATIONS ARE NOT UNDER NWS QUALITY CONTROL. THEY ALSO MAY NOT
  REPORT WEATHER SUCH AS PRECIPITATION OR FOG.

ILZ001-002-007-009-015-016-024-241200-
NORTHWEST ILLINOIS

CITY           SKY/WX    TMP DP  RH WIND       PRES   REMARKS
MOLINE         TSTM      73  70  90 NW3       29.93R FOG
STERLING*      RAIN      72  70  93 VRB6      29.94F FOG
SAVANNA*       RAIN      72  71  97 S6        29.95R
$$

ILZ003-004-008-010-011-017-018-241200-
NORTH CENTRAL ILLINOIS

CITY           SKY/WX    TMP DP  RH WIND       PRES   REMARKS
ROCKFORD       LGT RAIN  72  69  90 S17G25    29.97S
ROCHELLE*      LGT RAIN  69  69  99 SW9       29.99R
$$

ILZ005-006-012>014-019>023-241200-
NORTHEAST ILLINOIS

CITY           SKY/WX    TMP DP  RH WIND       PRES   REMARKS
CHICAGO-OHARE  MOCLDY    70  66  87 S13       30.00S
CHICAGO-MIDWAY CLOUDY    72  65  78 S10       30.01S
AURORA         CLOUDY    69  66  90 S10       30.00F
LANSING*       MOCLDY    69  64  82 S12       30.03F
JOLIET*        CLOUDY    71  68  92 S6        30.00F
WAUKEGAN       CLOUDY    72  66  81 S14       29.97S
DUPAGE AIRPORT MOCLDY    71  66  84 S15       29.99F
KANKAKEE*      MOCLDY    70  66  88 S13G18    30.04F
WHEELING       MOCLDY    72  66  81 S12       30.00F
MORRIS*        CLOUDY    68  66  94 S6        29.99F
ROMEOVILLE*    CLOUDY    68  64  88 S10       30.01S
NORTHERLY ISL    N/A     72  63  73 S9          N/A
$$

LMZ740>746-241200-
SOUTHERN LAKE MICHIGAN

STATION/POSITION SKY/WX   TEMP    WIND        PRES    VSBY  WAVE
                          AIR SEA DIR/SP/G                  HT/PER
                          (F)     (DEG/KT/KT) (MB)    (MI)  (FT/S)
SOUTHERN BUOY              74 75  170/ 23/ 29 1014.8          5/ 5
WILMETTE HARBOR            72 70  200/ 12/ 16   N/A           2/ 4
HARRISON CRIB              72     190/ 19/ 19   N/A
BURNHAM HARBOR             72     190/ 10/ 20   N/A
CALUMET HARBOR             72     180/ 11/ 18 1016.0F
BURNS HARBOR               71     180/ 13/ 20 1017.6F
MICHIGAN CITY              70     140/ 11/ 13   N/A
MICHIGAN CITY 6N           71 73  180/ 12/ 16   N/A           1/ 2
ST. JOSEPH                 72 75  170/ 16/ 19 1017.6F         2/ 3
$$

ILZ025>027-034>036-040-047-049-050-058-095>099-241200-
WEST-CENTRAL ILLINOIS

CITY           SKY/WX    TMP DP  RH WIND       PRES   REMARKS
QUINCY         TSTM      75  74  96 S16G23    29.95F
GALESBURG*     CLOUDY    72  71  97 SE7       29.93F
MACOMB*        CLOUDY    73  72  97 S10       29.95F
JACKSONVILLE*  CLOUDY    74  72  93 S13G18    29.98F
PITTSFIELD*    CLOUDY    75  73  92 S12       29.99S
$$

ILZ028>032-037-038-041>044-048-051>054-059>061-241200-
CENTRAL ILLINOIS

CITY           SKY/WX    TMP DP  RH WIND       PRES   REMARKS
PONTIAC        CLOUDY    72  71  98 S10       30.01F
BLOOMINGTON    CLOUDY    72  70  93 S14       30.02F
DECATUR        CLOUDY    74  70  87 S14       30.05S
PEORIA         TSTM      73  72  96 S10       29.97F
LACON*         CLOUDY    72  70  93 S7        29.97F
LINCOLN*       MOCLDY    74  73  97 S14       29.99F
SPRINGFIELD    CLOUDY    75  72  90 S13G21    30.00F
TAYLORVILLE    CLOUDY    73  72  97 S9        30.04F
$$

ILZ033-039-045-046-055>057-062-063-241200-
EAST-CENTRAL ILLINOIS

CITY           SKY/WX    TMP DP  RH WIND       PRES   REMARKS
CHAMPAIGN      CLOUDY    71  69  93 S13       30.05F
RANTOUL*       MOCLDY    72  70  95 S8        30.06S
MATTOON        CLOUDY    71  68  90 S9        30.08S
PARIS*         CLOUDY    69  68  97 S5        30.10S
$$

ILZ079-100>102-241200-
SOUTHWEST ILLINOIS

CITY           SKY/WX    TMP DP  RH WIND       PRES   REMARKS
ALTON          CLOUDY    74  72  94 S8        30.04F
BELLEVILLE     PTCLDY    74  74 100 S6        30.04F
CAHOKIA*       PTCLDY    75  72  90 S6        30.04F
SPARTA*        CLOUDY    74  73  95 S10       30.09S
$$

ILZ064>066-069>071-074>076-080>082-084>086-088>090-092>094-241200-
SOUTH-CENTRAL ILLINOIS

CITY           SKY/WX    TMP DP  RH WIND       PRES   REMARKS
CARBONDALE     PTCLDY    74  72  93 S9        30.11S
EFFINGHAM*     CLOUDY    72  72 100 SE5       30.11R
MARION         CLOUDY    75  73  94 S8        30.13S
MT. VERNON     PTCLDY    73  68  83 S9        30.12R
CENTRALIA*     CLOUDY    74  73  98 S12G17    30.08S
SALEM*         CLOUDY    75  72  92 S7        30.09S
$$

ILZ067-068-072-073-078-083-087-091-241200-
SOUTHEAST ILLINOIS

CITY           SKY/WX    TMP DP  RH WIND       PRES   REMARKS
LAWRENCEVILLE  PTCLDY    70  69  97 S6        30.12F
FLORA*         CLOUDY    73  72  94 S7        30.10S
FAIRFIELD*     CLOUDY    73  72  96 S5        30.11R
HARRISBURG*    CLOUDY    73  72  96 S5        30.13S
ROBINSON*      CLOUDY    69  68  96 S6        30.12S
CARMI*         MOCLDY    70  70 100 S5        30.12F FOG
$$

ABBREVIATIONS USED IN REMARKS
   TC - TEMPERATURE IN CELSIUS
  WCI - WIND CHILL INDEX
   HX - HEAT INDEX
  VSB - VISIBILITY
$$





USA.gov is the U.S. government's official web portal to all federal, state and local government web resources and services.